World > North America > United States > Oregon > Portland   City of Portland, OR

Portland, OR Hourly Weather Conditions

Feedback E-mail the Weather

Quick WX

Portland, OR Weather Maps

°F °C°F °C
Portland Weather Map
UTC Time: 12/8/2022, 08:37
Your Time:

Portland, OR Regional Weather

Expires:202212080800;;495566
ASUS46 KPQR 080710
RWROR 

OREGON REGIONAL WEATHER ROUNDUP
NATIONAL WEATHER SERVICE PORTLAND OR
1100 PM PST WED DEC 07 2022

NOTE: "FAIR" INDICATES FEW OR NO CLOUDS BELOW 12,000 FEET WITH
NO SIGNIFICANT WEATHER AND/OR OBSTRUCTIONS TO VISIBILITY.


ORZ001>013-080800-
NORTHWEST OREGON

  
CITY           SKY/WX    TMP DP  RH WIND       PRES   REMARKS
ASTORIA        CLOUDY    43  39  86 E7        29.94F                  
TILLAMOOK      CLOUDY    46  39  76 SE12      30.01F                  
NEWPORT        CLOUDY    46  37  71 S12G17    30.05F                  
FLORENCE       CLOUDY    46  41  81 SE5       30.05F                  
PORTLAND       CLOUDY    39  31  72 E14       30.07F WCI  31          
VANCOUVER WA   CLOUDY    39  31  72 SE9       30.08F                  
SCAPPOOSE      LGT RAIN  38  35  89 CALM      30.06F                  
HILLSBORO      LGT RAIN  39  37  92 SE5       30.05F                  
AURORA         LGT RAIN  38  36  92 CALM      30.08S                  
MCMINNVILLE    CLOUDY    38  37  97 CALM      30.06F FOG              
SALEM          CLOUDY    45  36  70 S9        30.05F                  
CORVALLIS      CLOUDY    41  38  89 S5        30.08F                  
EUGENE         CLOUDY    45  36  70 SE9       30.08F                  
CRESWELL       CLOUDY    41  39  93 CALM      30.08F                  
$$


SKY/WX - Weather  TMP - Temperature  DP - Dew Point  RH - Humidity
WIND - Wind Direction/Speed PRES - Barometric Pressure VSB - Visibility
WCI - Wind Chill Index E13G22 Wind - East Wind 13 mph/Gusts of 22 mph

Trending Headlines

Trending Entertainment Headlines

Portland Radar Loop

Use the map search tool if you want to place a location marker on the radar map...

Portland Quick Facts

National Two Day Weather Forecast


E-mail the Portland Weather Forecast

Voice your opinion or tell us about page issues...